TimeAKDT,TemperatureF,Dew PointF,Humidity,Sea Level PressureIn,VisibilityMPH,Wind Direction,Wind SpeedMPH,Gust SpeedMPH,PrecipitationIn,Events,Conditions,WindDirDegrees,DateUTC
12:16 AM,46.4,44.6,93,29.86,10.0,Calm,Calm,-,N/A,,Clear,0,2013-08-29 08:16:00
12:36 AM,48.2,46.4,93,29.86,10.0,Calm,Calm,-,N/A,,Clear,0,2013-08-29 08:36:00
12:56 AM,46.4,44.6,93,29.86,7.0,Calm,Calm,-,N/A,,Clear,0,2013-08-29 08:56:00
1:16 AM,48.2,44.6,87,29.85,10.0,Calm,Calm,-,N/A,,Clear,0,2013-08-29 09:16:00
1:36 AM,48.2,44.6,87,29.85,10.0,Calm,Calm,-,N/A,,Clear,0,2013-08-29 09:36:00
2:36 AM,46.4,44.6,93,29.85,10.0,Calm,Calm,-,N/A,,Clear,0,2013-08-29 10:36:00
2:56 AM,46.4,42.8,87,29.84,5.0,Calm,Calm,-,N/A,,Clear,0,2013-08-29 10:56:00
3:16 AM,46.4,42.8,87,29.84,5.0,Calm,Calm,-,N/A,,Clear,0,2013-08-29 11:16:00
4:16 AM,46.4,44.6,93,29.83,1.2,Calm,Calm,-,N/A,,Mostly Cloudy,0,2013-08-29 12:16:00
4:36 AM,46.4,44.6,93,29.83,0.2,Calm,Calm,-,N/A,,Overcast,0,2013-08-29 12:36:00
4:56 AM,46.4,44.6,93,29.83,10.0,Calm,Calm,-,N/A,,Scattered Clouds,0,2013-08-29 12:56:00
5:36 AM,44.6,42.8,93,29.83,2.5,Calm,Calm,-,N/A,,Clear,0,2013-08-29 13:36:00
5:56 AM,46.4,44.6,93,29.82,10.0,Calm,Calm,-,N/A,,Scattered Clouds,0,2013-08-29 13:56:00
6:36 AM,46.4,44.6,93,29.82,10.0,Calm,Calm,-,N/A,,Scattered Clouds,0,2013-08-29 14:36:00
6:56 AM,48.2,46.4,93,29.81,10.0,Calm,Calm,-,N/A,,Mostly Cloudy,0,2013-08-29 14:56:00
7:16 AM,48.2,44.6,87,29.81,10.0,Calm,Calm,-,N/A,,Mostly Cloudy,0,2013-08-29 15:16:00
7:56 AM,51.8,48.2,88,29.81,10.0,Calm,Calm,-,N/A,,Scattered Clouds,0,2013-08-29 15:56:00
8:16 AM,51.8,48.2,88,29.81,10.0,ENE,4.6,-,N/A,,Scattered Clouds,60,2013-08-29 16:16:00
8:36 AM,51.8,48.2,88,29.80,10.0,ENE,4.6,-,N/A,,Scattered Clouds,60,2013-08-29 16:36:00
9:56 AM,51.8,46.4,82,29.80,10.0,ENE,3.5,-,N/A,,Mostly Cloudy,60,2013-08-29 17:56:00
10:16 AM,53.6,48.2,82,29.80,10.0,NE,4.6,-,N/A,,Mostly Cloudy,50,2013-08-29 18:16:00
10:56 AM,55.4,48.2,77,29.79,10.0,NE,4.6,-,N/A,,Mostly Cloudy,50,2013-08-29 18:56:00
11:16 AM,55.4,48.2,77,29.79,10.0,NE,3.5,-,N/A,,Mostly Cloudy,50,2013-08-29 19:16:00
11:36 AM,57.2,48.2,72,29.78,10.0,East,4.6,-,N/A,,Mostly Cloudy,80,2013-08-29 19:36:00
11:56 AM,57.2,48.2,72,29.78,10.0,ENE,5.8,-,N/A,,Scattered Clouds,60,2013-08-29 19:56:00
12:36 PM,57.2,46.4,67,29.77,10.0,NE,5.8,-,N/A,,Scattered Clouds,50,2013-08-29 20:36:00
12:56 PM,59.0,48.2,67,29.77,10.0,NE,6.9,-,N/A,,Scattered Clouds,40,2013-08-29 20:56:00
1:36 PM,59.0,48.2,67,29.76,10.0,ENE,4.6,-,N/A,,Scattered Clouds,60,2013-08-29 21:36:00
1:56 PM,60.8,48.2,63,29.76,10.0,ENE,4.6,-,N/A,,Scattered Clouds,60,2013-08-29 21:56:00
2:36 PM,60.8,48.2,63,29.75,10.0,NE,4.6,-,N/A,,Scattered Clouds,50,2013-08-29 22:36:00
2:56 PM,60.8,48.2,63,29.75,10.0,ENE,4.6,-,N/A,,Scattered Clouds,70,2013-08-29 22:56:00
3:16 PM,62.6,48.2,59,29.74,10.0,ENE,4.6,-,N/A,,Scattered Clouds,60,2013-08-29 23:16:00
3:36 PM,62.6,50.0,63,29.74,10.0,East,4.6,-,N/A,,Scattered Clouds,80,2013-08-29 23:36:00
4:16 PM,60.8,48.2,63,29.73,10.0,ENE,4.6,-,N/A,,Scattered Clouds,70,2013-08-30 00:16:00
4:36 PM,60.8,48.2,63,29.73,10.0,NE,4.6,-,N/A,,Scattered Clouds,50,2013-08-30 00:36:00
4:56 PM,57.2,48.2,72,29.73,10.0,NE,5.8,-,N/A,,Scattered Clouds,50,2013-08-30 00:56:00
5:36 PM,57.2,48.2,72,29.72,10.0,ENE,5.8,-,N/A,,Scattered Clouds,70,2013-08-30 01:36:00
6:16 PM,57.2,48.2,72,29.72,10.0,ENE,4.6,-,N/A,,Mostly Cloudy,60,2013-08-30 02:16:00
6:36 PM,57.2,48.2,72,29.72,10.0,ENE,3.5,-,N/A,,Mostly Cloudy,70,2013-08-30 02:36:00
6:56 PM,57.2,48.2,72,29.72,10.0,East,4.6,-,N/A,,Mostly Cloudy,80,2013-08-30 02:56:00
7:16 PM,55.4,48.2,77,29.72,10.0,ENE,4.6,-,N/A,,Mostly Cloudy,70,2013-08-30 03:16:00
7:36 PM,55.4,48.2,77,29.72,10.0,Calm,Calm,-,N/A,,Mostly Cloudy,0,2013-08-30 03:36:00
7:56 PM,55.4,48.2,77,29.72,10.0,ENE,3.5,-,N/A,,Mostly Cloudy,70,2013-08-30 03:56:00
8:16 PM,55.4,48.2,77,29.73,10.0,Calm,Calm,-,N/A,,Mostly Cloudy,0,2013-08-30 04:16:00
8:36 PM,55.4,51.8,88,29.73,10.0,Calm,Calm,-,N/A,,Mostly Cloudy,0,2013-08-30 04:36:00
9:56 PM,57.2,51.8,82,29.75,10.0,Calm,Calm,-,N/A,,Overcast,0,2013-08-30 05:56:00
10:16 PM,55.4,51.8,88,29.75,10.0,Calm,Calm,-,N/A,,Overcast,0,2013-08-30 06:16:00
10:36 PM,55.4,51.8,88,29.75,10.0,Calm,Calm,-,N/A,,Overcast,0,2013-08-30 06:36:00
10:56 PM,55.4,51.8,88,29.75,10.0,Calm,Calm,-,N/A,,Overcast,0,2013-08-30 06:56:00
11:16 PM,55.4,51.8,88,29.76,10.0,Calm,Calm,-,N/A,,Overcast,0,2013-08-30 07:16:00
11:36 PM,55.4,51.8,88,29.76,10.0,East,4.6,-,N/A,,Overcast,90,2013-08-30 07:36:00
11:56 PM,51.8,48.2,88,29.77,10.0,Calm,Calm,-,N/A,,Overcast,0,2013-08-30 07:56:00